Weather History for EIKN - March, 2014

Change the Weather History Date:

Monday, March 3, 2014

  Actual Average Record
Temperature  
Mean Temperature 36 °F -  
Max Temperature 44 °F - - ()
Min Temperature 29 °F - - ()
Degree Days  
Heating Degree Days 28    
Moisture  
Dew Point 34 °F    
Average Humidity 82    
Maximum Humidity 100    
Minimum Humidity 56    
Precipitation  
Precipitation 0.04 in - - ()
Sea Level Pressure  
Sea Level Pressure 29.15 in    
Wind  
Wind Speed 8 mph ()    
Max Wind Speed 25 mph    
Max Gust Speed -    
Visibility 7.5 miles    
Events Rain    
T = Trace of Precipitation, MM = Missing Value Source: Averaged Metar Reports

Daily Weather History Graph

Daily Weather History Graph

Search for Another Location

Airport or City:

Trip Planner

Search our weather history database for the weather conditions in past years. The results will help you decide how hot, cold, wet, or windy it might be!

Date:

Astronomy

Mar. 03, 2014 Rise Set
Actual Time 7:19 AM GMT 6:16 PM GMT
Civil Twilight 6:43 AM GMT 6:51 PM GMT
Nautical Twilight 6:03 AM GMT 7:32 PM GMT
Astronomical Twilight 5:21 AM GMT 8:13 PM GMT
Moon 7:54 AM GMT (3/3) 9:35 PM GMT (3/3)
Length of Visible Light 12h 07m
Length of Day
10h 56m
Waxing Crescent, 6% of the Moon is Illuminated
Mar 3
Waxing Crescent
Mar 8
First Quarter
Mar 16
Full
Mar 24
Last Quarter
Mar 30
New

Hourly Weather History & Observations

Time (GMT) Temp. Windchill Dew Point Humidity Pressure Visibility Wind Dir Wind Speed Gust Speed Precip Events Conditions
12:00 AM 31 °F - 31 °F 100% 28.81 in - SE 6.7 mph - -  
1:00 AM 31 °F - 31 °F 100% 28.82 in - SE 6.7 mph - -  
2:00 AM 31 °F - 30 °F 96% 28.83 in - ESE 4.5 mph - -  
3:00 AM 32 °F - 31 °F 95% 28.85 in - East 4.5 mph - -  
4:00 AM 31 °F - 30 °F 95% 28.88 in - East 6.7 mph - -  
5:00 AM 30 °F - 29 °F 96% 28.91 in - North 6.7 mph - -  
6:00 AM 31 °F - 31 °F 100% 28.96 in 16 mi NNE 6.7 mph - -   Scattered Clouds
7:00 AM 31 °F - 31 °F 100% 29.00 in 19 mi North 6.7 mph - -   Scattered Clouds
7:00 AM 32.0 °F 25.6 °F 32.0 °F 100% 28.94 in 6.2 mi North 6.9 mph - N/A   Partly Cloudy
7:30 AM 32.0 °F 27.5 °F 30.2 °F 93% 28.97 in 6.2 mi North 4.6 mph - N/A   Partly Cloudy
8:00 AM 33 °F - 30 °F 83% 29.05 in 25 mi North 4.5 mph - -   Scattered Clouds
8:00 AM 33.8 °F 29.6 °F 30.2 °F 87% 29.00 in 6.2 mi North 4.6 mph - N/A   Partly Cloudy
8:30 AM 33.8 °F 27.7 °F 30.2 °F 87% 29.03 in 6.2 mi NNW 6.9 mph - N/A   Partly Cloudy
9:00 AM 34 °F - 28 °F 72% 29.11 in 25 mi WNW 6.7 mph - -   Scattered Clouds
9:00 AM 33.8 °F 27.7 °F 28.4 °F 81% 29.06 in 6.2 mi WNW 6.9 mph - N/A   Partly Cloudy
9:30 AM 35.6 °F 30.7 °F 26.6 °F 70% 29.09 in 6.2 mi WNW 5.8 mph - N/A   Partly Cloudy
10:00 AM 36 °F - 34 °F 89% 29.15 in 25 mi NW 6.7 mph - -   Scattered Clouds
10:00 AM 37.4 °F 32.1 °F 23.0 °F 56% 29.12 in 6.2 mi NW 6.9 mph - N/A   Partly Cloudy
10:30 AM 39.2 °F 34.2 °F 33.8 °F 81% 29.12 in 6.2 mi NNW 6.9 mph - N/A   Partly Cloudy
11:00 AM 40 °F - 35 °F 76% 29.17 in 28 mi NW 4.5 mph - -   Scattered Clouds
11:00 AM 41.0 °F 38.0 °F 35.6 °F 81% 29.15 in 6.2 mi NW 4.6 mph - N/A   Partly Cloudy
11:30 AM 41.0 °F 36.4 °F 35.6 °F 81% 29.15 in 6.2 mi WNW 6.9 mph - N/A   Partly Cloudy
12:00 PM 43 °F - 35 °F 66% 29.21 in 31 mi West 6.7 mph - -   Scattered Clouds
12:00 PM 42.8 °F 38.6 °F 35.6 °F 76% 29.18 in 6.2 mi West 6.9 mph - N/A   Partly Cloudy
12:30 PM 42.8 °F 38.0 °F 35.6 °F 76% 29.18 in 6.2 mi West 8.1 mph - N/A   Scattered Clouds
1:00 PM 43 °F - 33 °F 57% 29.23 in 31 mi West 8.9 mph - -   Partly Cloudy
1:00 PM 42.8 °F 37.5 °F 32.0 °F 66% 29.21 in 6.2 mi West 9.2 mph - N/A   Scattered Clouds
1:30 PM 44.6 °F 40.7 °F 32.0 °F 61% 29.21 in 6.2 mi WNW 6.9 mph - N/A   Mostly Cloudy
2:00 PM 44 °F - 35 °F 59% 29.25 in 25 mi West 11.2 mph - -   Partly Cloudy
2:00 PM 44.6 °F 38.8 °F 33.8 °F 66% 29.21 in 6.2 mi West 11.5 mph - N/A   Scattered Clouds
2:30 PM 44.6 °F 38.1 °F 35.6 °F 71% 29.24 in 6.2 mi WSW 13.8 mph - N/A   Mostly Cloudy
3:00 PM 44 °F - 36 °F 65% 29.26 in 22 mi WSW 13.4 mph - -   Partly Cloudy
3:00 PM 44.6 °F 38.1 °F 35.6 °F 71% 29.24 in 6.2 mi WSW 13.8 mph - N/A   Mostly Cloudy
3:30 PM 42.8 °F 36.6 °F 33.8 °F 70% 29.24 in 6.2 mi WSW 11.5 mph - N/A   Mostly Cloudy
4:00 PM 40 °F - 35 °F 75% 29.29 in 9 mi West 17.9 mph - - Rain Light Rain Showers
4:00 PM 39.2 °F 29.8 °F 35.6 °F 87% 29.27 in 6.2 mi West 18.4 mph - N/A Rain Light Rain Showers
4:30 PM 39.2 °F 33.0 °F 37.4 °F 93% 29.24 in 6.2 mi SW 9.2 mph - N/A Rain Light Rain Showers
5:00 PM 40 °F - 38 °F 90% 29.28 in 7 mi SW 8.9 mph - - Rain Light Rain Showers
5:00 PM 39.2 °F 33.0 °F 37.4 °F 93% 29.24 in 6.2 mi SW 9.2 mph - N/A Rain Light Rain Showers
6:00 PM 42 °F - 38 °F 81% 29.29 in 12 mi West 17.9 mph - - Rain Light Rain Showers
6:00 PM 41.0 °F 32.2 °F 37.4 °F 87% 29.27 in 6.2 mi West 18.4 mph - N/A   Mostly Cloudy
7:00 PM 41 °F - 38 °F 87% 29.34 in 12 mi West 15.7 mph - - Rain Light Rain Showers
7:00 PM 41.0 °F 32.8 °F 39.2 °F 93% 29.30 in 6.2 mi West 16.1 mph - N/A   Mostly Cloudy
8:00 PM 40 °F - 38 °F 88% 29.37 in - West 17.9 mph - -  
9:00 PM 40 °F - 38 °F 88% 29.41 in - WNW 24.6 mph - -  
10:00 PM 40 °F - 38 °F 90% 29.43 in - WNW 20.1 mph - -  
11:00 PM 41 °F - 37 °F 80% 29.45 in - West 17.9 mph - -